SBI7520 ZYHB-ZWWW

Flight info

Callsign SBI7520
Flight time N/A
Altitude 36000
Route ZYHB N0448F360 ONI18D ONINA B451 HLD A345 KAGAK G338 SER H84 IM G588 FKG FKGD3 FKG39 CI08R FI08R RW07 ZWWW
Aircraft B738/M-SDGIWZ/S

Departure

Time N/A
Airport Harbin Taiping International Airport (ZYHB)

Arrival

Time 2026-05-01 08:54
Airport Ürümqi Tianshan International Airport (ZWWW)
Time Latitude Longitude Altitude Speed Heading
2026-05-01 07:23 47.72963 96.86016 36154 ft 394 kts 269°
2026-05-01 07:24 47.72279 96.73927 36182 ft 392 kts 269°
2026-05-01 07:24 47.71817 96.65875 36182 ft 392 kts 269°
2026-05-01 07:25 47.71348 96.57809 36182 ft 392 kts 269°
2026-05-01 07:25 47.71323 96.49759 36183 ft 388 kts 278°
2026-05-01 07:26 47.71827 96.41788 36182 ft 388 kts 278°
2026-05-01 07:26 47.72295 96.33861 36182 ft 388 kts 278°
2026-05-01 07:27 47.72803 96.25847 36182 ft 389 kts 278°
2026-05-01 07:27 47.73304 96.17879 36182 ft 389 kts 278°
2026-05-01 07:28 47.73804 96.09937 36182 ft 388 kts 278°
2026-05-01 07:28 47.74306 96.01923 36182 ft 388 kts 278°
2026-05-01 07:29 47.74801 95.93960 36182 ft 388 kts 278°
2026-05-01 07:29 47.75290 95.86004 36182 ft 388 kts 278°
2026-05-01 07:30 47.75776 95.78014 36182 ft 388 kts 278°
2026-05-01 07:30 47.76256 95.70041 36182 ft 388 kts 278°
2026-05-01 07:31 47.76729 95.62067 36182 ft 388 kts 278°
2026-05-01 07:32 47.77890 95.42102 36182 ft 388 kts 278°
2026-05-01 07:33 47.78566 95.30179 36182 ft 388 kts 277°
2026-05-01 07:33 47.79234 95.18206 36182 ft 388 kts 277°
2026-05-01 07:34 47.79891 95.06185 36182 ft 388 kts 277°
2026-05-01 07:35 47.80320 94.98207 36182 ft 389 kts 277°
2026-05-01 07:35 47.80746 94.90186 36182 ft 394 kts 277°
2026-05-01 07:36 47.81174 94.82026 36182 ft 398 kts 277°
2026-05-01 07:36 47.81600 94.73766 36182 ft 400 kts 277°
2026-05-01 07:37 47.82223 94.61475 36182 ft 398 kts 277°
2026-05-01 07:37 47.82633 94.53239 36182 ft 398 kts 277°
2026-05-01 07:38 47.83035 94.45041 36182 ft 399 kts 277°
2026-05-01 07:39 47.83631 94.32703 36182 ft 399 kts 276°
2026-05-01 07:39 47.84209 94.20434 36182 ft 399 kts 276°
2026-05-01 07:40 47.84591 94.12168 36182 ft 399 kts 276°
2026-05-01 07:40 47.84964 94.03967 36182 ft 399 kts 276°
2026-05-01 07:41 47.85332 93.95747 36182 ft 399 kts 276°
2026-05-01 07:42 47.85872 93.83454 36182 ft 398 kts 276°
2026-05-01 07:42 47.86224 93.75270 36182 ft 398 kts 276°
2026-05-01 07:43 47.86571 93.67047 36182 ft 398 kts 276°
2026-05-01 07:43 47.87080 93.54748 36182 ft 398 kts 276°
2026-05-01 07:44 47.87740 93.38296 36182 ft 398 kts 276°
2026-05-01 07:45 47.88061 93.30075 36182 ft 399 kts 275°
2026-05-01 07:45 47.88376 93.21859 36182 ft 399 kts 275°
2026-05-01 07:46 47.88686 93.13626 36182 ft 399 kts 275°
2026-05-01 07:47 47.89140 93.01248 36182 ft 401 kts 275°
2026-05-01 07:47 47.89424 92.92989 36182 ft 405 kts 275°
2026-05-01 07:48 47.89842 92.80394 36181 ft 406 kts 275°
2026-05-01 07:48 47.90122 92.72048 36181 ft 404 kts 275°
2026-05-01 07:49 47.90537 92.59528 36182 ft 405 kts 275°
2026-05-01 07:50 47.90801 92.51155 36182 ft 406 kts 275°
2026-05-01 07:50 47.91188 92.38605 36181 ft 404 kts 276°
2026-05-01 07:51 47.91491 92.30257 36182 ft 405 kts 275°
2026-05-01 07:52 47.91856 92.17724 36183 ft 404 kts 274°
2026-05-01 07:52 47.92068 92.09358 36182 ft 405 kts 275°
2026-05-01 07:53 47.92411 91.96806 36182 ft 405 kts 275°
2026-05-01 07:53 47.92625 91.88437 36179 ft 405 kts 275°
2026-05-01 07:55 47.93019 91.67509 36141 ft 406 kts 269°
2026-05-01 07:55 47.91221 91.59563 36150 ft 420 kts 242°
2026-05-01 07:56 47.86516 91.48519 36129 ft 419 kts 243°
2026-05-01 07:57 47.81886 91.37598 36128 ft 419 kts 242°
2026-05-01 07:58 47.75605 91.22971 36128 ft 420 kts 241°
2026-05-01 07:59 47.69327 91.08420 36129 ft 421 kts 240°
2026-05-01 08:00 47.59764 90.86726 36128 ft 420 kts 240°
2026-05-01 08:01 47.53394 90.72288 36128 ft 420 kts 240°
2026-05-01 08:02 47.48603 90.61443 36128 ft 420 kts 240°
2026-05-01 08:03 47.43854 90.50620 36128 ft 420 kts 240°
2026-05-01 08:03 47.38111 90.40833 36129 ft 424 kts 229°
2026-05-01 08:04 47.29939 90.28343 36128 ft 426 kts 229°
2026-05-01 08:05 47.23771 90.19022 36127 ft 424 kts 229°
2026-05-01 08:06 47.17568 90.09821 36128 ft 426 kts 228°
2026-05-01 08:07 47.09242 89.97574 36129 ft 424 kts 229°
2026-05-01 08:08 47.03004 89.88316 36129 ft 426 kts 229°
2026-05-01 08:09 46.94694 89.76235 36129 ft 420 kts 229°
2026-05-01 08:09 46.90586 89.70192 36127 ft 418 kts 230°
2026-05-01 08:10 46.82458 89.58279 36128 ft 417 kts 228°
2026-05-01 08:11 46.77738 89.53251 36128 ft 427 kts 215°
2026-05-01 08:11 46.72304 89.49686 36128 ft 432 kts 208°
2026-05-01 08:12 46.64072 89.44559 36129 ft 431 kts 209°
2026-05-01 08:13 46.55828 89.39442 36127 ft 430 kts 209°
2026-05-01 08:13 46.47573 89.34381 36129 ft 432 kts 208°
2026-05-01 08:14 46.42043 89.31043 36127 ft 431 kts 208°
2026-05-01 08:14 46.36534 89.27728 36128 ft 432 kts 208°
2026-05-01 08:15 46.28258 89.22691 36127 ft 431 kts 208°
2026-05-01 08:16 46.22737 89.19332 36128 ft 431 kts 208°
2026-05-01 08:16 46.17234 89.16008 36128 ft 432 kts 208°
2026-05-01 08:17 46.11712 89.12745 36129 ft 432 kts 207°
2026-05-01 08:17 46.06183 89.09432 36128 ft 431 kts 208°
2026-05-01 08:18 46.00690 89.06107 36127 ft 431 kts 208°
2026-05-01 08:19 45.89620 88.99573 36128 ft 431 kts 208°
2026-05-01 08:19 45.84108 88.96280 36128 ft 430 kts 208°
2026-05-01 08:20 45.78583 88.92909 36129 ft 431 kts 208°
2026-05-01 08:20 45.73122 88.89587 36005 ft 429 kts 208°
2026-05-01 08:20 45.70384 88.87945 35478 ft 424 kts 207°
2026-05-01 08:21 45.67672 88.86334 34994 ft 419 kts 207°
2026-05-01 08:21 45.65030 88.84765 34492 ft 415 kts 208°
2026-05-01 08:21 45.62360 88.83173 33981 ft 411 kts 208°
2026-05-01 08:21 45.59752 88.81615 33478 ft 407 kts 207°
2026-05-01 08:22 45.57158 88.80069 32978 ft 403 kts 207°
2026-05-01 08:22 45.54606 88.78550 32484 ft 400 kts 207°
2026-05-01 08:22 45.52075 88.77044 31993 ft 396 kts 207°
2026-05-01 08:22 45.49561 88.75549 31503 ft 393 kts 207°
2026-05-01 08:23 45.47042 88.74051 31011 ft 389 kts 207°
2026-05-01 08:23 45.44558 88.72576 30526 ft 386 kts 207°
2026-05-01 08:23 45.42102 88.71117 30049 ft 389 kts 207°
2026-05-01 08:23 45.39624 88.69647 29556 ft 388 kts 207°
2026-05-01 08:24 45.37155 88.68187 29070 ft 384 kts 207°
2026-05-01 08:24 45.34712 88.66742 28588 ft 380 kts 207°
2026-05-01 08:24 45.32276 88.65303 28108 ft 377 kts 207°
2026-05-01 08:24 45.29878 88.63887 27632 ft 374 kts 207°
2026-05-01 08:25 45.27496 88.62482 27160 ft 370 kts 207°
2026-05-01 08:25 45.25132 88.61088 26691 ft 367 kts 207°
2026-05-01 08:25 45.22809 88.59720 26229 ft 364 kts 207°
2026-05-01 08:25 45.20473 88.58346 25765 ft 360 kts 207°
2026-05-01 08:26 45.18185 88.57001 25310 ft 357 kts 207°
2026-05-01 08:26 45.15929 88.55675 24861 ft 356 kts 207°
2026-05-01 08:26 45.13620 88.54318 24403 ft 360 kts 207°
2026-05-01 08:26 45.11341 88.52981 23941 ft 357 kts 206°
2026-05-01 08:27 45.09038 88.51633 23480 ft 354 kts 206°
2026-05-01 08:27 45.06797 88.50322 23031 ft 351 kts 206°
2026-05-01 08:27 45.04569 88.49019 22585 ft 348 kts 206°
2026-05-01 08:27 45.02353 88.47725 22141 ft 345 kts 206°
2026-05-01 08:28 45.00164 88.46446 21702 ft 342 kts 206°
2026-05-01 08:28 44.97988 88.45177 21264 ft 339 kts 206°
2026-05-01 08:28 44.95815 88.43910 20828 ft 337 kts 206°
2026-05-01 08:28 44.93651 88.42648 20396 ft 342 kts 206°
2026-05-01 08:29 44.91463 88.41374 19948 ft 339 kts 206°
2026-05-01 08:29 44.89279 88.40106 19507 ft 336 kts 206°
2026-05-01 08:29 44.87143 88.38866 19075 ft 333 kts 206°
2026-05-01 08:29 44.85022 88.37635 18646 ft 330 kts 206°
2026-05-01 08:30 44.82906 88.36407 18218 ft 327 kts 206°
2026-05-01 08:30 44.80835 88.35207 17799 ft 325 kts 206°
2026-05-01 08:30 44.78753 88.34002 17378 ft 322 kts 205°
2026-05-01 08:30 44.76704 88.32816 16963 ft 320 kts 205°
2026-05-01 08:31 44.74654 88.31630 16546 ft 317 kts 205°
2026-05-01 08:31 44.72631 88.30446 16139 ft 321 kts 205°
2026-05-01 08:31 44.70576 88.29237 15714 ft 320 kts 205°
2026-05-01 08:31 44.68539 88.28044 15298 ft 317 kts 205°
2026-05-01 08:32 44.66508 88.26856 14883 ft 315 kts 205°
2026-05-01 08:32 44.64512 88.25689 14620 ft 307 kts 205°
2026-05-01 08:32 44.62571 88.24554 14526 ft 309 kts 205°
2026-05-01 08:32 44.60558 88.23377 14405 ft 312 kts 205°
2026-05-01 08:33 44.58609 88.22242 14292 ft 302 kts 205°
2026-05-01 08:33 44.56635 88.21089 14191 ft 312 kts 205°
2026-05-01 08:33 44.54650 88.19933 14062 ft 305 kts 205°
2026-05-01 08:33 44.52710 88.18804 13962 ft 305 kts 205°
2026-05-01 08:34 44.50729 88.17648 13845 ft 310 kts 205°
2026-05-01 08:34 44.48774 88.16513 13726 ft 300 kts 205°
2026-05-01 08:34 44.46820 88.15376 13627 ft 309 kts 205°
2026-05-01 08:34 44.44854 88.14233 13499 ft 303 kts 205°
2026-05-01 08:35 44.42911 88.13107 13398 ft 302 kts 205°
2026-05-01 08:35 44.40947 88.11965 13283 ft 308 kts 205°
2026-05-01 08:35 44.39019 88.10850 13165 ft 297 kts 205°
2026-05-01 08:35 44.37077 88.09724 13067 ft 307 kts 205°
2026-05-01 08:36 44.35122 88.08591 12940 ft 301 kts 205°
2026-05-01 08:36 44.33208 88.07487 12841 ft 300 kts 205°
2026-05-01 08:36 44.31269 88.06363 12727 ft 306 kts 205°
2026-05-01 08:36 44.29332 88.05247 12609 ft 295 kts 205°
2026-05-01 08:37 44.27413 88.04137 12511 ft 305 kts 205°
2026-05-01 08:37 44.25469 88.03016 12385 ft 298 kts 205°
2026-05-01 08:37 44.23569 88.01923 12287 ft 298 kts 205°
2026-05-01 08:37 44.21653 88.00816 12173 ft 303 kts 205°
2026-05-01 08:38 44.19729 87.99709 12057 ft 293 kts 206°
2026-05-01 08:38 44.17990 87.98256 11952 ft 298 kts 225°
2026-05-01 08:38 44.16760 87.95943 11934 ft 295 kts 248°
2026-05-01 08:38 44.16042 87.93282 11922 ft 295 kts 252°
2026-05-01 08:39 44.15344 87.90619 11925 ft 295 kts 251°
2026-05-01 08:39 44.14619 87.87943 11927 ft 295 kts 251°
2026-05-01 08:39 44.13909 87.85274 11928 ft 295 kts 252°
2026-05-01 08:39 44.13199 87.82587 11928 ft 295 kts 252°
2026-05-01 08:40 44.11788 87.77253 11928 ft 295 kts 252°
2026-05-01 08:40 44.11078 87.74571 11928 ft 295 kts 252°
2026-05-01 08:40 44.10372 87.71904 11928 ft 295 kts 252°
2026-05-01 08:41 44.09655 87.69199 11928 ft 295 kts 252°
2026-05-01 08:41 44.08947 87.66530 11928 ft 295 kts 252°
2026-05-01 08:41 44.08235 87.63850 11928 ft 295 kts 252°
2026-05-01 08:41 44.07525 87.61183 11928 ft 295 kts 252°
2026-05-01 08:42 44.06820 87.58535 11928 ft 295 kts 252°
2026-05-01 08:42 44.06108 87.55865 11928 ft 295 kts 252°
2026-05-01 08:42 44.05390 87.53172 11928 ft 295 kts 252°
2026-05-01 08:42 44.04683 87.50528 11839 ft 290 kts 252°
2026-05-01 08:43 44.04000 87.47977 11761 ft 272 kts 252°
2026-05-01 08:43 44.03368 87.45622 11762 ft 251 kts 252°
2026-05-01 08:43 44.02782 87.43433 11765 ft 232 kts 252°
2026-05-01 08:43 44.02242 87.41421 11823 ft 219 kts 252°
2026-05-01 08:44 44.01706 87.39414 11821 ft 222 kts 252°
2026-05-01 08:44 44.01163 87.37391 11820 ft 223 kts 252°
2026-05-01 08:44 44.00623 87.35381 11820 ft 222 kts 252°
2026-05-01 08:44 44.00083 87.33377 11820 ft 222 kts 252°
2026-05-01 08:45 43.99543 87.31373 11820 ft 222 kts 252°
2026-05-01 08:45 43.99000 87.29358 11820 ft 222 kts 252°
2026-05-01 08:45 43.98459 87.27350 11820 ft 223 kts 252°
2026-05-01 08:45 43.97913 87.25330 11820 ft 222 kts 252°
2026-05-01 08:46 43.97368 87.23313 11820 ft 222 kts 252°
2026-05-01 08:46 43.96823 87.21298 11728 ft 226 kts 252°
2026-05-01 08:46 43.96271 87.19257 11464 ft 225 kts 252°
2026-05-01 08:46 43.95726 87.17248 11216 ft 221 kts 252°
2026-05-01 08:47 43.95196 87.15294 10979 ft 212 kts 252°
2026-05-01 08:47 43.94667 87.13409 10509 ft 213 kts 246°
2026-05-01 08:47 43.93706 87.11893 10046 ft 217 kts 210°
2026-05-01 08:47 43.92248 87.11575 9597 ft 216 kts 166°
2026-05-01 08:48 43.90908 87.12387 9165 ft 208 kts 153°
2026-05-01 08:48 43.89565 87.12984 8681 ft 202 kts 168°
2026-05-01 08:48 43.88288 87.13708 8142 ft 197 kts 137°
2026-05-01 08:48 43.87504 87.15166 7661 ft 186 kts 115°
2026-05-01 08:49 43.86957 87.16756 7153 ft 181 kts 109°
2026-05-01 08:49 43.86658 87.18386 6680 ft 173 kts 91°
2026-05-01 08:49 43.86583 87.20013 6170 ft 171 kts 93°
2026-05-01 08:49 43.86460 87.21634 5687 ft 165 kts 92°
2026-05-01 08:50 43.86348 87.23177 5391 ft 160 kts 93°
2026-05-01 08:50 43.86298 87.24744 5154 ft 166 kts 87°
2026-05-01 08:50 43.86297 87.26310 4899 ft 158 kts 88°
2026-05-01 08:50 43.86384 87.27817 4800 ft 163 kts 76°
2026-05-01 08:51 43.86710 87.29394 4613 ft 176 kts 70°
2026-05-01 08:51 43.87116 87.31011 4480 ft 173 kts 69°
2026-05-01 08:51 43.87529 87.32474 4207 ft 160 kts 67°
2026-05-01 08:51 43.87911 87.33898 3918 ft 158 kts 69°
2026-05-01 08:52 43.88233 87.35352 3681 ft 157 kts 72°
2026-05-01 08:52 43.88524 87.36797 3513 ft 155 kts 74°
2026-05-01 08:52 43.88810 87.38256 3249 ft 159 kts 73°
2026-05-01 08:52 43.89109 87.39723 3009 ft 156 kts 73°
2026-05-01 08:53 43.89404 87.41158 2770 ft 154 kts 73°
2026-05-01 08:53 43.89690 87.42560 2556 ft 151 kts 72°
2026-05-01 08:53 43.89994 87.43992 2336 ft 157 kts 73°
2026-05-01 08:53 43.90290 87.45425 2144 ft 152 kts 72°
2026-05-01 08:54 43.90557 87.46679 2134 ft 104 kts 73°
2026-05-01 08:54 43.90702 87.47374 2134 ft 60 kts 73°
2026-05-01 08:54 43.90770 87.47735 2134 ft 28 kts 92°
2026-05-01 08:54 43.90734 87.47996 2134 ft 24 kts 102°
2026-05-01 08:55 43.90670 87.48034 2134 ft 14 kts 238°
2026-05-01 08:55 43.90632 87.47872 2134 ft 21 kts 253°
2026-05-01 08:55 43.90583 87.47641 2134 ft 28 kts 253°
2026-05-01 08:55 43.90521 87.47351 2134 ft 33 kts 253°
2026-05-01 08:56 43.90456 87.47043 2134 ft 32 kts 253°
2026-05-01 08:56 43.90393 87.46750 2134 ft 31 kts 253°
2026-05-01 08:56 43.90331 87.46459 2134 ft 31 kts 253°
2026-05-01 08:56 43.90271 87.46172 2134 ft 30 kts 253°
2026-05-01 08:57 43.90217 87.45920 2134 ft 13 kts 253°
2026-05-01 08:57 43.90163 87.45864 2134 ft 11 kts 166°
2026-05-01 08:57 43.90086 87.45897 2134 ft 12 kts 162°
2026-05-01 08:57 43.90004 87.45933 2134 ft 12 kts 163°
2026-05-01 08:58 43.89917 87.45969 2134 ft 13 kts 163°
2026-05-01 08:58 43.89828 87.46004 2134 ft 13 kts 164°
2026-05-01 08:58 43.89783 87.46069 2134 ft 10 kts 92°
2026-05-01 08:58 43.89784 87.46181 2134 ft 13 kts 90°
2026-05-01 08:59 43.89784 87.46321 2134 ft 14 kts 89°
2026-05-01 08:59 43.89777 87.46394 2134 ft 5 kts 140°
2026-05-01 08:59 43.89748 87.46399 2134 ft 3 kts 179°
2026-05-01 08:59 43.89738 87.46400 2134 ft 0 kts 179°